Flag for U.S.A. Weather past 2 weeks in Springfield, Illinois, U.S.A.

Now
69 °F

Mostly cloudy.


Feels Like: 69 °F
Forecast: 68 / 78 °F
Wind: 14 mph from Southwest

Location: Capital Airport

Current Time: May 26, 2015 at 10:55:22 AM

Latest Report: May 26, 2015 at 9:52 AM


Visibility: 10 mi

Pressure: 29.83 "Hg

Humidity: 79%

Dew point: 62 °F

Location of SpringfieldLocation

Historic Weather in Springfield — Graph

°F

Springfield temperature yesterday

Maximum temperature yesterday: 84 °F (at 4:52 PM)
Minimum temperature yesterday: 68 °F (at 1:52 AM)
Average temperature yesterday: 75 °F

Past Weeks' High & Low Weather Summary

 TemperatureHumidityPressure
High87 °F (May 24, 3:52 PM)96% (May 25, 1:52 AM)30.45 "Hg (May 25, 1:52 AM)
Low43 °F (May 20, 11:52 PM)22% (May 22, 2:52 PM)29.81 "Hg (May 26, 8:52 AM)
Average65 °F66%30.10 "Hg
* Reported May 11 8:59 AM — May 26 8:52 AM, Springfield, Weather by CustomWeather, © 2015

Note: Actual official high and low records may vary slightly from our data, if they occured in-between our weather recording intervals... More about our weather records

Advertising

Springfield weather history for previous 24 hours

 ConditionsComfort  
Time TempWeatherWind HumidityBarometerVisibility
8:52 AM
Tue, May 26
72 °FRain. Fog.22 mph87%29.81 "Hg4 mi
7:52 AM73 °FLight rain. Mostly cloudy.17 mph84%29.83 "Hg10 mi
6:52 AM72 °FLight rain. Mostly cloudy.16 mph87%29.85 "Hg10 mi
6:02 AM71 °FLow clouds.12 mph90%29.87 "Hg10 mi
5:52 AM71 °FOvercast.12 mph90%29.86 "Hg10 mi
4:52 AM71 °FLight rain. Fog.10 mph90%29.88 "Hg4 mi
3:52 AM71 °FOvercast.12 mph84%29.89 "Hg10 mi
2:52 AM71 °FOvercast.13 mph84%29.91 "Hg10 mi
1:52 AM71 °FPassing clouds.12 mph84%29.91 "Hg10 mi
12:52 AM72 °FClear.14 mph81%29.92 "Hg10 mi
11:52 PM
Mon, May 25
72 °FClear.15 mph81%29.93 "Hg10 mi
10:52 PM74 °FClear.13 mph76%29.94 "Hg10 mi
9:52 PM75 °FClear.15 mph74%29.97 "Hg10 mi
8:52 PM77 °FSunny.16 mph69%29.94 "Hg10 mi
7:52 PM79 °FSunny.16 mph65%29.92 "Hg10 mi
6:52 PM82 °FSunny.15 mph55%29.90 "Hg10 mi
5:52 PM83 °FPassing clouds.16 mph51%29.93 "Hg10 mi
4:52 PM84 °FSunny.16 mph46%29.94 "Hg10 mi
3:52 PM83 °FSunny.16 mph50%29.95 "Hg10 mi
2:52 PM83 °FSunny.15 mph48%29.94 "Hg10 mi
1:52 PM81 °FSunny.15 mph53%29.96 "Hg10 mi
12:52 PM78 °FScattered clouds.13 mph58%29.97 "Hg10 mi
11:52 AM75 °FScattered clouds.12 mph64%29.98 "Hg10 mi
10:52 AM73 °FOvercast.13 mph66%29.98 "Hg10 mi
Weather by CustomWeather, © 2015

See weather overviewHow to use our weather pages